sat.trackr.live / text

‹ back to catalog

STARLINK-5895

NORAD 55964 · 2023-037BC

PAYLOAD ACTIVE UNKNOWN

§ Identity

Operator
Country
US
Launch date
2023-03-17
Launch site
AFWTR
Launch vehicle
Mass (kg)
RCS (m²)

Purposes: comms

External: N2YO · Heavens-Above · Gunter

§ Orbital elements

Epoch: 2026-05-25T04:23:12.778656Z

Period
95.38 min
Inclination
69.9962°
Eccentricity
0.0005301
Mean motion
15.09735326 rev/d
Perigee alt
533.3 km
Apogee alt
540.7 km
Semi-major
6,915.1 km
B*
8.8611e-4
RAAN
64.6315°
Arg perigee
220.4374°
Mean anomaly
139.6398°
Rev number
17,610

§ Raw data

STARLINK-58951 55964U 23037BC  26145.18278679  .00014252  00000+0  88611-3 0  99902 55964  69.9962  64.6315 0005301 220.4374 139.6398 15.09735326176103

JSON: /api/v1/satellites/55964 · /tle

For live sub-satellite position, see the globe view (requires WebGL).

§ Visibility from observer

Set your observer location to see the next 7 days of passes ≥ 10°. The values pass through the URL so the page stays shareable.

No JS? Fill the form by hand. The geolocation button needs JavaScript.